Погода в Бахердене

Погода в Бахердене : погода сейчас, прогноз погоды и архив. Всё, что Вы хотите узнать о погоде в Бахердене!

Поиск расширенной информации на нашем сайте:

Другие новости

Новости СМИ2

Главная страница сайта

Новости сайта

03.07.2017

Напоминаем, что на нашем специализированном сайте Метеоцентр.Азия вы можете получить высокодетализированные автоматические прогнозы погоды по пунктам России, СНГ и мира в авиационном формате (включающие направление и скорость ветра, видимость, явления погоды, количество и форму облачности, нижнюю и верхнюю границу облачности).

Рекомендуем: Прямо на сайте экспресс заказ пазла, подробности на сайте.

Погода в Бахердене - сегодня

Время (UTC), дата Ветер
(°,м/с) 
Видим.   Явления Облачность Т
(°С)
Тd
(°С)
f(%) Тe
(°С)
Pmin
(гПа)
dP
(гПа)
Po
(мм)
O2
(г/м3)
Тmin Tmax R s Состояние
почвы
18 14.08.18 310 (СЗ) 2000 м    ясно 
+32.4 +15.4 36 +42  1009.9  1.4  744  265    +37.5       
21 14.08.18 290 (З) 2000 м    ясно 
+28.8 +17.4 50 +42  1009.3  -0.8  744  267           
00 15.08.18 240 (ЮЗ) 2000 м    ясно 
+26.9 +19 62 +44  1010.6  1.1  744  269           
03 15.08.18 050 (СВ) 20000 м    3/3 2000 м средняя 
[Ac cast]
+28 +19 58 +44  1012.6  752  270           
06 15.08.18 340 (С) 0900 м    4/0 средняя 
[Ac cast]
+32.2 +19.5 47 +50  1012.2  -0.1  746  264  +26.7         
09 15.08.18 280 (З) 20000 м    3/3 2000 м средняя 
[Ac cast]
+35.5 +18.8 38 +52  1011  -1  745  261           
12 15.08.18 тихо ()   20000 м    ясно 
+37.1 +17.7 32 +51  1008.8  -2  744  260           
15 15.08.18 тихо ()   20000 м    ясно 
+35.9 +16.9 33 +48  1009  0.1  744  261    +37.3       
18 15.08.18 280 (З) 4000 м    ясно 
+32.2 +16.4 39 +44  1010  0.8  744  265    +37.3       
21 15.08.18 310 (СЗ) 2000 м    ясно 
+30.8 +15.7 40 +41  1010.1  -0.1  744  266           
00 16.08.18 250 (З) 2000 м    ясно 
+27 +19.3 63 +44  1012  1.7  745  269           
03 16.08.18 200 (Ю) 20000 м    ясно 
+27.8 +20.6 65 +48  1013.2  1.2  746  268           
06 16.08.18 300 (СЗ) 20000 м    ясно 
+31.8 +19 47 +48  1013.7  0.1  747  265  +26.8         
09 16.08.18 320 (СЗ) 20000 м    4/4 600 м 
[Cu hum]
+34.3 +19 41 +51  1012.9  -0.7  746  263           
12 16.08.18 320 (СЗ) 20000 м    4/4 2000 м средняя 
[Ac cast]
+36.5 +17.6 33 +50  1010.4  -2.4  745  261           
15 16.08.18 180 (Ю) 20000 м    ясно 
+35.5 +17.4 34 +49  1009.5  -0.8  744  262    +36.7       
18 16.08.18 тихо ()   2000 м    ясно 
+32.2 +17.2 41 +45  1010.1  0.4  744  265    +36.7       
21 16.08.18 320 (СЗ) 2000 м    ясно 
+30.7 +16.9 44 +43  1008.4  -1.9  743  265           
00 17.08.18 110 (В) 2000 м    ясно 
+28.4 +17.7 52 +42  1009.8  1.3  744  268           
03 17.08.18 тихо ()   20000 м    ясно 
+28.6 +20.1 60 +48  1010.6  0.9  745  267           
06 17.08.18 050 (СВ) 20000 м    ясно 
+31.2 +20.2 52 +51  1010.1  -0.3  744  264  +28.2         
09 17.08.18 320 (СЗ) 20000 м    3/3 600 м 
[Cu med, cong]
+35.7 +19.9 40 +54  1009.3  -0.6  744  260           
12 17.08.18 080 (В) 20000 м    3/3 600 м 
[Cu med, cong]
+38.2 +18.2 31 +53  1005.9  -3.3  741  258           
15 17.08.18 110 (В) 20000 м    3/3 2000 м средняя 
[Ac cast]
+36.9 +18 33 +52  1004.6  -1.2  740  259    +38.4       
18 17.08.18 тихо ()   2000 м    ясно 
+31.2 +18.6 47 +47  1005.1  0.1  741  264    +38.4       
Время (UTC), дата Ветер
(°,м/с) 
Видим.   Явления Облачность Т
(°С)
Тd
(°С)
f(%) Тe
(°С)
Pmin
(гПа)
dP
(гПа)
Po
(мм)
O2
(г/м3)
Тmin Tmax R s Состояние
почвы

Для получения пояснительной информации подведите курсор к названию столбца.

ПОГОДА в Бахердене - архив

Всё, что Вы хотите узнать о погоде в Бахердене - удобно и подробно!

Выберите нужную дату (начиная с 1 января 2015* года) и нажмите кнопку "Найти".
Будут отображены архивные сводки погоды по пункту Бахерден, начиная с указанной даты.


Отображать данные в формате CSV (для использования в таблицах Excel)


Внимание! Наш архив погоды предназначен исключительно для личного некоммерческого использования в познавательных целях. Если Вам необходимы официальные справки о состоянии погоды (для производственных, юридических, коммерческих и т.п. целей), обращайтесь в органы Росгидромета.

*Примечание: данная дата относится к архиву по метеостанциям СССР (Россия, СНГ, Балтия).
Архив по метеостанциям Зарубежной Европы и Азии (кроме Китая) хранится 10 дней, по другим регионам земного шара (Китай, Африка, Америка, Австралия, Океания) - 1 день.

Бахерден - район местоположения метеостанции


Название, широта, долгота, высота метеостанции:
Бахерден 38.4°ш. 57.4°д. 159 м над ур. моря [Туркменистан]

Дополнительная информация

В oтличие oт бoльшинства пoгoдных сайтoв мы публикуем пoдрoбную метеoинфoрмацию в детальнoм прoфессиoнальнoм фoрмате.

Характеристики температуры и влажнoсти вoздуха измеряются на высoте 2 м в тени вдали oт зданий и деревьев.
Скoрoсть ветра измеряется на высoте 10 м (на урoвне рoста челoвека скoрoсть ветра ниже в 1.5-2 раза). Если метеoстанция нахoдится в гoрoде или в лесу, тo скoрoсть ветра занижена на 2-4 м/с пo сравнению с oткрытым местoм. Скoрoсть ветра над акватoриями крупных рек и oзёр, а также на вершинах хoлмoв на 2-5 м/с выше, чем в oбычных услoвиях.
Атмoсфернoе давление в разных тoчках местнoсти мoжет значительнo oтличаться oт давления на метеoстанции, в зависимoсти oт услoвий рельефа (при пoдъёме на 10 м давление пoнижается примернo на 1 мм рт.ст.).